Weather History for PAHO - March, 2013

Change the Weather History Date:

Saturday, March 2, 2013

  Actual Average (PASX) Record (PASX)
Temperature  
Mean Temperature 29 °F -  
Max Temperature 37 °F 29 °F - (-1)
Min Temperature 21 °F 8 °F - (-1)
Degree Days  
Heating Degree Days 36    
Moisture  
Dew Point 24 °F    
Average Humidity 77    
Maximum Humidity 85    
Minimum Humidity 67    
Precipitation  
Precipitation 0.00 in - - ()
Sea Level Pressure  
Sea Level Pressure 29.96 in    
Wind  
Wind Speed 5 mph (NE)    
Max Wind Speed 15 mph    
Max Gust Speed 26 mph    
Visibility 10 miles    
Events      
Averages and records for this station are not official NWS values.
T = Trace of Precipitation, MM = Missing Value Source: NWS Daily Summary

Daily Weather History Graph

Daily Weather History Graph

Search for Another Location

Airport or City:

Trip Planner

Search our weather history database for the weather conditions in past years. The results will help you decide how hot, cold, wet, or windy it might be!

Date:

Astronomy

Mar. 02, 2013 Rise Set
Actual Time 7:59 AM AKST 6:37 PM AKST
Civil Twilight 7:18 AM AKST 7:19 PM AKST
Nautical Twilight 6:30 AM AKST 8:06 PM AKST
Astronomical Twilight 5:41 AM AKST 8:55 PM AKST
Moon 12:45 AM AKST (3/2) 9:06 AM AKST (3/2)
Length of Visible Light 12h 01m
Length of Day
10h 38m
Waning Gibbous, 72% of the Moon is Illuminated
Mar 2
Waning Gibbous
Mar 4
Last Quarter
Mar 11
New
Mar 19
First Quarter
Mar 27
Full

Hourly Weather History & Observations

Time (AKST) Temp. Windchill Dew Point Humidity Pressure Visibility Wind Dir Wind Speed Gust Speed Precip Events Conditions
12:53 AM 30.0 °F 25.2 °F 21.9 °F 72% 29.95 in 10.0 mi WNW 4.6 mph - N/A   Partly Cloudy
1:53 AM 21.9 °F 17.2 °F 17.1 °F 82% 29.96 in 10.0 mi NE 3.5 mph - N/A   Mostly Cloudy
3:53 AM 27.0 °F 21.6 °F 21.9 °F 81% 29.96 in 10.0 mi ENE 4.6 mph - N/A   Mostly Cloudy
4:53 AM 28.0 °F 16.5 °F 21.9 °F 78% 29.97 in 10.0 mi NNW 15.0 mph 26.5 mph N/A   Mostly Cloudy
5:53 AM 26.1 °F 21.9 °F 21.9 °F 84% 29.97 in 10.0 mi NNE 3.5 mph - N/A   Overcast
6:53 AM 27.0 °F 23.0 °F 23.0 °F 85% 29.96 in 10.0 mi NE 3.5 mph - N/A   Overcast
7:53 AM 26.1 °F 20.5 °F 21.9 °F 84% 29.97 in 10.0 mi ENE 4.6 mph - N/A   Overcast
8:53 AM 27.0 °F 19.5 °F 21.0 °F 78% 29.96 in 10.0 mi NE 6.9 mph - N/A   Scattered Clouds
9:53 AM 28.0 °F 20.8 °F 21.9 °F 78% 29.96 in 10.0 mi NE 6.9 mph - N/A   Scattered Clouds
10:53 AM 30.9 °F 21.7 °F 24.1 °F 76% 29.96 in 10.0 mi ENE 11.5 mph - N/A   Mostly Cloudy
11:53 AM 32.0 °F 24.2 °F 25.0 °F 75% 29.96 in 10.0 mi ENE 9.2 mph - N/A   Mostly Cloudy
12:53 PM 34.0 °F 26.6 °F 26.1 °F 73% 29.97 in 10.0 mi East 9.2 mph - N/A   Mostly Cloudy
1:53 PM 36.0 °F 29.6 °F 26.1 °F 67% 29.97 in 10.0 mi East 8.1 mph - N/A   Overcast
2:53 PM 37.0 °F 32.4 °F 27.0 °F 67% 29.95 in 10.0 mi East 5.8 mph - N/A   Overcast
3:53 PM 37.0 °F 33.3 °F 27.0 °F 67% 29.96 in 10.0 mi ENE 4.6 mph - N/A   Overcast
4:53 PM 36.0 °F 33.3 °F 27.0 °F 70% 29.95 in 10.0 mi NE 3.5 mph - N/A   Mostly Cloudy
5:53 PM 35.1 °F 31.0 °F 27.0 °F 72% 29.95 in 10.0 mi NE 4.6 mph - N/A   Clear
6:53 PM 33.1 °F - 26.1 °F 75% 29.96 in 10.0 mi Calm Calm - N/A   Scattered Clouds
7:53 PM 30.9 °F 27.5 °F 25.0 °F 79% 29.96 in 10.0 mi NE 3.5 mph - N/A   Scattered Clouds
9:53 PM 32.0 °F - 26.1 °F 79% 29.97 in 10.0 mi Calm Calm - N/A   Scattered Clouds
10:53 PM 28.9 °F - 25.0 °F 85% 29.97 in 10.0 mi Calm Calm - N/A   Mostly Cloudy
11:53 PM 28.0 °F - 24.1 °F 85% 29.99 in 10.0 mi Calm Calm - N/A   Mostly Cloudy